| time (UTC) | temp F | wind direction | speed MPH | gust MPH | rain 1hr in | rain 24hr in | rain mn in | humidity % | barometer mb |
| 20260902054735 | 66 | 243 | 3.0 | 3.0 | 0.00 | 0.06 | 0.06 | 60 | 1026.1 |
| 20260902054230 | 66 | 262 | 2.0 | 3.0 | 0.00 | 0.06 | 0.06 | 60 | 1026.5 |
| 20260902053725 | 66 | 247 | 3.0 | 3.0 | 0.00 | 0.06 | 0.06 | 60 | 1026.4 |
| 20260902053220 | 66 | 233 | 3.0 | 3.0 | 0.00 | 0.06 | 0.06 | 60 | 1026.4 |
| 20260902052719 | 66 | 259 | 3.0 | 3.0 | 0.00 | 0.06 | 0.06 | 60 | 1026.1 |
| 20260902052215 | 66 | 253 | 4.0 | 5.0 | 0.00 | 0.06 | 0.06 | 61 | 1026.4 |
| 20260902051714 | 66 | 248 | 3.0 | 3.0 | 0.00 | 0.06 | 0.06 | 61 | 1026.3 |
| 20260902051209 | 66 | 264 | 5.0 | 5.0 | 0.00 | 0.06 | 0.06 | 61 | 1026.1 |
| 20260902050703 | 65 | 255 | 3.0 | 5.0 | 0.00 | 0.06 | 0.06 | 61 | 1026.5 |
| 20260902050159 | 65 | 250 | 3.0 | 3.0 | 0.00 | 0.06 | 0.06 | 61 | 1026.5 |
| 20260902045653 | 66 | 262 | 3.0 | 5.0 | 0.00 | 0.06 | 0.06 | 61 | 1026.5 |
| 20260902045149 | 65 | 253 | 2.0 | 2.0 | 0.00 | 0.06 | 0.06 | 61 | 1026.3 |
| 20260902044644 | 65 | 247 | 2.0 | 3.0 | 0.00 | 0.06 | 0.06 | 61 | 1026.4 |
| 20260902044140 | 66 | 238 | 3.0 | 3.0 | 0.00 | 0.06 | 0.06 | 61 | 1026.6 |
| 20260902043635 | 66 | 242 | 4.0 | 5.0 | 0.00 | 0.06 | 0.06 | 61 | 1026.3 |
| 20260902043130 | 66 | 250 | 4.0 | 5.0 | 0.00 | 0.06 | 0.06 | 60 | 1026.6 |
| 20260902042629 | 67 | 254 | 3.0 | 3.0 | 0.00 | 0.06 | 0.06 | 59 | 1026.5 |
| 20260902042125 | 67 | 232 | 4.0 | 5.0 | 0.00 | 0.06 | 0.06 | 59 | 1026.4 |
| 20260902041625 | 67 | 252 | 3.0 | 3.0 | 0.00 | 0.06 | 0.06 | 58 | 1026.8 |
| 20260902041119 | 67 | 235 | 3.0 | 3.0 | 0.00 | 0.06 | 0.06 | 58 | 1026.6 |
| 20260902040619 | 67 | 256 | 3.0 | 3.0 | 0.00 | 0.06 | 0.06 | 59 | 1026.6 |
| 20260902040114 | 67 | 249 | 4.0 | 5.0 | 0.00 | 0.06 | 0.06 | 59 | 1026.4 |
| 20260902035613 | 67 | 247 | 3.0 | 3.0 | 0.00 | 0.06 | 0.06 | 58 | 1026.3 |
| 20260902035108 | 67 | 251 | 4.0 | 7.0 | 0.00 | 0.06 | 0.06 | 58 | 1026.3 |
| 20260902034607 | 67 | 242 | 3.0 | 3.0 | 0.00 | 0.06 | 0.06 | 58 | 1026.0 |
| 20260902034107 | 67 | 243 | 4.0 | 5.0 | 0.00 | 0.06 | 0.06 | 58 | 1026.1 |
| 20260902033606 | 68 | 260 | 3.0 | 5.0 | 0.00 | 0.06 | 0.06 | 57 | 1025.9 |
| 20260902033101 | 68 | 243 | 3.0 | 5.0 | 0.00 | 0.06 | 0.06 | 57 | 1026.3 |
| 20260902032600 | 68 | 236 | 5.0 | 5.0 | 0.00 | 0.06 | 0.06 | 57 | 1026.4 |
| 20260902032055 | 68 | 244 | 3.0 | 3.0 | 0.00 | 0.06 | 0.06 | 57 | 1026.1 |
| 20260902031549 | 68 | 250 | 4.0 | 5.0 | 0.00 | 0.06 | 0.06 | 57 | 1026.0 |
| 20260902031045 | 68 | 252 | 4.0 | 5.0 | 0.00 | 0.06 | 0.06 | 57 | 1026.1 |
| 20260902030540 | 68 | 257 | 2.0 | 3.0 | 0.00 | 0.06 | 0.06 | 58 | 1025.4 |
| 20260902030040 | 68 | 249 | 3.0 | 3.0 | 0.00 | 0.06 | 0.06 | 58 | 1025.9 |
| 20260902025534 | 68 | 253 | 4.0 | 5.0 | 0.00 | 0.06 | 0.06 | 57 | 1025.6 |
| 20260902025029 | 68 | 255 | 3.0 | 5.0 | 0.00 | 0.06 | 0.06 | 57 | 1025.4 |
| 20260902024520 | 68 | 255 | 3.0 | 3.0 | 0.00 | 0.06 | 0.06 | 57 | 1025.5 |
| 20260902024020 | 68 | 232 | 2.0 | 3.0 | 0.00 | 0.06 | 0.06 | 56 | 1025.4 |
| 20260902023516 | 68 | 245 | 3.0 | 3.0 | 0.00 | 0.06 | 0.06 | 56 | 1025.5 |
| 20260902023015 | 68 | 259 | 4.0 | 5.0 | 0.00 | 0.06 | 0.06 | 55 | 1025.5 |
| 20260902022510 | 68 | 251 | 5.0 | 7.0 | 0.00 | 0.06 | 0.06 | 55 | 1025.3 |
| 20260902022006 | 69 | 232 | 5.0 | 7.0 | 0.00 | 0.06 | 0.06 | 55 | 1025.3 |
| 20260902021501 | 69 | 242 | 5.0 | 7.0 | 0.00 | 0.06 | 0.06 | 55 | 1025.1 |
| 20260902020956 | 69 | 244 | 7.0 | 10.0 | 0.00 | 0.06 | 0.06 | 55 | 1025.3 |
| 20260902020452 | 69 | 238 | 4.0 | 5.0 | 0.00 | 0.06 | 0.06 | 55 | 1024.9 |
| 20260902015948 | 69 | 247 | 3.0 | 5.0 | 0.00 | 0.06 | 0.06 | 55 | 1025.1 |
| 20260902015443 | 69 | 261 | 5.0 | 7.0 | 0.00 | 0.06 | 0.06 | 55 | 1025.0 |
| 20260902014938 | 69 | 224 | 3.0 | 3.0 | 0.00 | 0.06 | 0.06 | 54 | 1024.9 |
| 20260902014435 | 69 | 229 | 2.0 | 3.0 | 0.00 | 0.06 | 0.06 | 54 | 1024.8 |
| 20260902013934 | 69 | 239 | 4.0 | 5.0 | 0.00 | 0.06 | 0.06 | 53 | 1025.1 |
| 20260902013430 | 70 | 246 | 4.0 | 5.0 | 0.00 | 0.06 | 0.06 | 53 | 1024.9 |
| 20260902012925 | 70 | 257 | 3.0 | 3.0 | 0.00 | 0.06 | 0.06 | 52 | 1025.0 |
| 20260902012420 | 70 | 260 | 6.0 | 10.0 | 0.00 | 0.06 | 0.06 | 52 | 1025.0 |
| 20260902011916 | 70 | 244 | 4.0 | 5.0 | 0.00 | 0.06 | 0.06 | 51 | 1024.6 |
| 20260902011411 | 70 | 249 | 4.0 | 9.0 | 0.00 | 0.06 | 0.06 | 50 | 1024.6 |
| 20260902010910 | 71 | 231 | 3.0 | 3.0 | 0.00 | 0.06 | 0.06 | 50 | 1025.0 |
| 20260902010405 | 71 | 254 | 2.0 | 2.0 | 0.00 | 0.06 | 0.06 | 50 | 1024.8 |
| 20260902005905 | 71 | 268 | 3.0 | 3.0 | 0.00 | 0.06 | 0.06 | 49 | 1025.0 |
| 20260902005404 | 71 | 227 | 3.0 | 5.0 | 0.00 | 0.06 | 0.06 | 49 | 1024.8 |
| 20260902004901 | 71 | 222 | 4.0 | 7.0 | 0.00 | 0.06 | 0.06 | 48 | 1024.8 |
| 20260902004400 | 71 | 243 | 6.0 | 7.0 | 0.00 | 0.06 | 0.06 | 47 | 1024.6 |
| 20260902003855 | 72 | 251 | 5.0 | 7.0 | 0.00 | 0.06 | 0.06 | 47 | 1024.8 |
| 20260902003350 | 72 | 249 | 6.0 | 9.0 | 0.00 | 0.06 | 0.06 | 47 | 1024.8 |
| 20260902002846 | 72 | 246 | 5.0 | 7.0 | 0.00 | 0.06 | 0.06 | 46 | 1024.6 |
| 20260902002344 | 72 | 238 | 5.0 | 7.0 | 0.00 | 0.06 | 0.06 | 46 | 1024.8 |
| 20260902001840 | 72 | 240 | 4.0 | 5.0 | 0.00 | 0.06 | 0.06 | 46 | 1024.8 |
| 20260902001335 | 72 | 249 | 3.0 | 3.0 | 0.00 | 0.06 | 0.06 | 46 | 1024.8 |
| 20260902000830 | 72 | 256 | 5.0 | 7.0 | 0.00 | 0.06 | 0.06 | 46 | 1024.4 |
| 20260902000324 | 72 | 250 | 5.0 | 7.0 | 0.00 | 0.06 | 0.06 | 46 | 1024.9 |
| 20260901235820 | 73 | 256 | 3.0 | 5.0 | 0.00 | 0.06 | 0.06 | 46 | 1024.9 |
| 20260901235319 | 73 | 250 | 3.0 | 3.0 | 0.00 | 0.06 | 0.06 | 46 | 1024.8 |
| 20260901234814 | 73 | 244 | 5.0 | 5.0 | 0.00 | 0.06 | 0.06 | 46 | 1025.1 |
| 20260901234308 | 73 | 235 | 5.0 | 5.0 | 0.00 | 0.06 | 0.06 | 45 | 1025.0 |
| 20260901233803 | 73 | 269 | 6.0 | 9.0 | 0.00 | 0.06 | 0.06 | 45 | 1024.6 |
| 20260901233259 | 73 | 253 | 5.0 | 5.0 | 0.00 | 0.06 | 0.06 | 46 | 1024.6 |
| 20260901232755 | 74 | 277 | 7.0 | 10.0 | 0.00 | 0.06 | 0.06 | 44 | 1024.9 |
| 20260901232249 | 75 | 256 | 4.0 | 7.0 | 0.00 | 0.06 | 0.06 | 43 | 1024.8 |
| 20260901231746 | 75 | 274 | 7.0 | 9.0 | 0.00 | 0.06 | 0.06 | 43 | 1024.6 |
| 20260901231242 | 76 | 247 | 5.0 | 9.0 | 0.00 | 0.06 | 0.06 | 44 | 1024.6 |
| 20260901230738 | 77 | 248 | 5.0 | 7.0 | 0.00 | 0.06 | 0.06 | 41 | 1024.6 |
| 20260901230237 | 76 | 239 | 5.0 | 7.0 | 0.00 | 0.06 | 0.06 | 42 | 1024.5 |
| 20260901225732 | 75 | 248 | 3.0 | 3.0 | 0.00 | 0.06 | 0.06 | 44 | 1024.5 |
| 20260901225226 | 74 | 229 | 5.0 | 7.0 | 0.00 | 0.06 | 0.06 | 45 | 1024.6 |
| 20260901224723 | 73 | 223 | 9.0 | 12.0 | 0.00 | 0.06 | 0.06 | 47 | 1024.9 |
| 20260901224218 | 74 | 252 | 7.0 | 9.0 | 0.00 | 0.06 | 0.06 | 46 | 1024.9 |
| 20260901223714 | 74 | 249 | 5.0 | 7.0 | 0.00 | 0.06 | 0.06 | 45 | 1024.8 |
| 20260901223209 | 76 | 231 | 5.0 | 7.0 | 0.00 | 0.06 | 0.06 | 44 | 1024.9 |
| 20260901222705 | 75 | 261 | 4.0 | 5.0 | 0.00 | 0.06 | 0.06 | 45 | 1025.1 |
| 20260901222201 | 74 | 278 | 6.0 | 7.0 | 0.00 | 0.06 | 0.06 | 45 | 1025.3 |
| 20260901221657 | 76 | 245 | 4.0 | 5.0 | 0.00 | 0.06 | 0.06 | 45 | 1025.0 |
| 20260901221153 | 77 | 244 | 2.0 | 3.0 | 0.00 | 0.06 | 0.06 | 43 | 1025.3 |
| 20260901220652 | 78 | 292 | 10.0 | 12.0 | 0.00 | 0.06 | 0.06 | 42 | 1025.1 |
| 20260901220151 | 77 | 280 | 5.0 | 7.0 | 0.00 | 0.06 | 0.06 | 45 | 1025.3 |
| 20260901215650 | 76 | 232 | 3.0 | 3.0 | 0.00 | 0.06 | 0.06 | 45 | 1025.1 |
| 20260901215145 | 76 | 283 | 4.0 | 5.0 | 0.00 | 0.06 | 0.06 | 45 | 1025.3 |
| 20260901214642 | 76 | 226 | 5.0 | 7.0 | 0.00 | 0.06 | 0.06 | 45 | 1025.4 |
| 20260901214136 | 73 | 247 | 0.0 | 2.0 | 0.00 | 0.06 | 0.06 | 48 | 1025.5 |
| 20260901213631 | 74 | 241 | 4.0 | 5.0 | 0.00 | 0.06 | 0.06 | 49 | 1025.5 |
| 20260901213125 | 77 | 257 | 4.0 | 5.0 | 0.00 | 0.06 | 0.06 | 46 | 1025.5 |
| 20260901212619 | 77 | 209 | 5.0 | 7.0 | 0.00 | 0.06 | 0.06 | 45 | 1025.3 |
| 20260901212116 | 76 | 252 | 3.0 | 5.0 | 0.00 | 0.06 | 0.06 | 46 | 1025.3 |
| 20260901211610 | 77 | 236 | 2.0 | 3.0 | 0.00 | 0.06 | 0.06 | 45 | 1025.5 |
| 20260901211107 | 76 | 291 | 8.0 | 10.0 | 0.00 | 0.06 | 0.06 | 47 | 1025.6 |
| 20260901210602 | 77 | 238 | 8.0 | 10.0 | 0.00 | 0.06 | 0.06 | 42 | 1025.8 |
| 20260901210058 | 77 | 209 | 9.0 | 12.0 | 0.00 | 0.06 | 0.06 | 43 | 1025.9 |
| 20260901205553 | 77 | 250 | 10.0 | 14.0 | 0.00 | 0.06 | 0.06 | 42 | 1025.9 |
| 20260901205048 | 79 | 252 | 7.0 | 9.0 | 0.00 | 0.06 | 0.06 | 42 | 1025.9 |
| 20260901204544 | 79 | 283 | 3.0 | 5.0 | 0.00 | 0.06 | 0.06 | 41 | 1025.9 |
| 20260901204039 | 77 | 231 | 2.0 | 2.0 | 0.00 | 0.06 | 0.06 | 48 | 1026.1 |
| 20260901203539 | 76 | 240 | 2.0 | 2.0 | 0.00 | 0.06 | 0.06 | 48 | 1026.1 |
| 20260901203034 | 75 | 243 | 8.0 | 14.0 | 0.00 | 0.06 | 0.06 | 51 | 1026.3 |
| 20260901202529 | 78 | 223 | 5.0 | 7.0 | 0.00 | 0.06 | 0.06 | 46 | 1026.3 |
| 20260901202025 | 77 | 213 | 6.0 | 7.0 | 0.00 | 0.06 | 0.06 | 46 | 1026.1 |
| 20260901201520 | 75 | 265 | 5.0 | 7.0 | 0.00 | 0.06 | 0.06 | 49 | 1026.3 |
| 20260901201014 | 75 | 226 | 7.0 | 10.0 | 0.00 | 0.06 | 0.06 | 50 | 1026.3 |
| 20260901200509 | 76 | 268 | 4.0 | 5.0 | 0.00 | 0.06 | 0.06 | 50 | 1026.3 |
| 20260901200008 | 75 | 247 | 4.0 | 5.0 | 0.00 | 0.06 | 0.06 | 48 | 1026.5 |
| 20260901195506 | 76 | 258 | 6.0 | 9.0 | 0.00 | 0.06 | 0.06 | 47 | 1026.6 |
| 20260901195006 | 75 | 256 | 7.0 | 12.0 | 0.00 | 0.06 | 0.06 | 46 | 1026.4 |
| 20260901194501 | 77 | 246 | 6.0 | 10.0 | 0.00 | 0.06 | 0.06 | 44 | 1026.6 |
| 20260901193957 | 75 | 234 | 3.0 | 5.0 | 0.00 | 0.06 | 0.06 | 46 | 1026.6 |
| 20260901193456 | 75 | 219 | 8.0 | 14.0 | 0.00 | 0.06 | 0.06 | 46 | 1026.8 |
| 20260901192956 | 76 | 223 | 3.0 | 3.0 | 0.00 | 0.06 | 0.06 | 46 | 1026.6 |
| 20260901192452 | 75 | 244 | 6.0 | 10.0 | 0.00 | 0.06 | 0.06 | 47 | 1026.4 |
| 20260901191948 | 74 | 262 | 3.0 | 5.0 | 0.00 | 0.06 | 0.06 | 45 | 1026.6 |
| 20260901191443 | 74 | 258 | 3.0 | 3.0 | 0.00 | 0.06 | 0.06 | 49 | 1026.9 |
| 20260901190939 | 74 | 231 | 6.0 | 10.0 | 0.00 | 0.06 | 0.06 | 48 | 1026.9 |
| 20260901190434 | 74 | 270 | 3.0 | 3.0 | 0.00 | 0.06 | 0.06 | 50 | 1026.8 |
| 20260901185932 | 74 | 289 | 5.0 | 5.0 | 0.00 | 0.06 | 0.06 | 50 | 1027.0 |
| 20260901185432 | 73 | 256 | 3.0 | 3.0 | 0.00 | 0.06 | 0.06 | 52 | 1027.0 |
| 20260901184926 | 71 | 225 | 3.0 | 3.0 | 0.00 | 0.06 | 0.06 | 54 | 1027.4 |
| 20260901184422 | 72 | 231 | 6.0 | 7.0 | 0.00 | 0.06 | 0.06 | 55 | 1027.1 |
| 20260901183917 | 72 | 243 | 5.0 | 5.0 | 0.00 | 0.06 | 0.06 | 54 | 1027.1 |
| 20260901183416 | 72 | 229 | 2.0 | 3.0 | 0.00 | 0.06 | 0.06 | 54 | 1027.4 |
| 20260901182912 | 72 | 298 | 4.0 | 5.0 | 0.00 | 0.06 | 0.06 | 54 | 1027.3 |
| 20260901182407 | 71 | 252 | 4.0 | 5.0 | 0.00 | 0.06 | 0.06 | 55 | 1027.4 |
| 20260901181902 | 71 | 241 | 3.0 | 3.0 | 0.00 | 0.06 | 0.06 | 56 | 1027.4 |
| 20260901181357 | 70 | 246 | 4.0 | 5.0 | 0.00 | 0.06 | 0.06 | 56 | 1027.6 |
| 20260901180855 | 70 | 242 | 6.0 | 9.0 | 0.00 | 0.06 | 0.06 | 54 | 1027.6 |
| 20260901180355 | 70 | 263 | 5.0 | 9.0 | 0.00 | 0.06 | 0.06 | 55 | 1027.6 |
| 20260901175853 | 71 | 248 | 5.0 | 5.0 | 0.00 | 0.06 | 0.06 | 55 | 1027.5 |
| 20260901175348 | 72 | 252 | 3.0 | 3.0 | 0.00 | 0.06 | 0.06 | 56 | 1027.1 |
| 20260901174844 | 71 | 268 | 5.0 | 7.0 | 0.00 | 0.06 | 0.06 | 55 | 1027.5 |
| 20260901174339 | 71 | 283 | 4.0 | 5.0 | 0.00 | 0.06 | 0.06 | 56 | 1027.4 |
| 20260901173835 | 71 | 235 | 4.0 | 5.0 | 0.00 | 0.06 | 0.06 | 53 | 1027.6 |
| 20260901173329 | 71 | 249 | 6.0 | 7.0 | 0.00 | 0.06 | 0.06 | 55 | 1027.3 |
| 20260901172826 | 71 | 258 | 2.0 | 2.0 | 0.00 | 0.06 | 0.06 | 55 | 1027.5 |
| 20260901172325 | 70 | 235 | 4.0 | 5.0 | 0.00 | 0.06 | 0.06 | 54 | 1027.5 |
| 20260901171823 | 70 | 240 | 3.0 | 3.0 | 0.00 | 0.06 | 0.06 | 54 | 1027.3 |
| 20260901171323 | 71 | 239 | 2.0 | 3.0 | 0.00 | 0.06 | 0.06 | 52 | 1027.4 |
| 20260901170822 | 0 | 0.0 | 0.0 | 0.00 | 0.00 | 0.00 | 1027.5 | ||
| 20260901170317 | 0 | 0.0 | 0.0 | 0.00 | 0.00 | 0.00 | 1027.4 | ||
| 20260901165816 | 0 | 0.0 | 0.0 | 0.00 | 0.00 | 0.00 | 1027.4 | ||
| 20260901165310 | 0 | 0.0 | 0.0 | 0.00 | 0.00 | 0.00 | 1027.3 | ||
| 20260901164807 | 0 | 0.0 | 0.0 | 0.00 | 0.00 | 0.00 | 1027.4 | ||
| 20260901164302 | 0 | 0.0 | 0.0 | 0.00 | 0.00 | 0.00 | 1027.5 | ||
| 20260901163756 | 0 | 0.0 | 0.0 | 0.00 | 0.00 | 0.00 | 1027.4 | ||
| 20260901163250 | 0 | 0.0 | 0.0 | 0.00 | 0.00 | 0.00 | 1027.3 | ||
| 20260901162745 | 0 | 0.0 | 0.0 | 0.00 | 0.00 | 0.00 | 1027.3 | ||
| 20260901162245 | 0 | 0.0 | 0.0 | 0.00 | 0.00 | 0.00 | 1027.4 | ||
| 20260901161743 | 0 | 0.0 | 0.0 | 0.00 | 0.00 | 0.00 | 1027.5 | ||
| 20260901161238 | 68 | 255 | 2.0 | 2.0 | 0.00 | 0.06 | 0.06 | 62 | 1027.4 |
| 20260901160734 | 68 | 255 | 2.0 | 2.0 | 0.00 | 0.06 | 0.06 | 62 | 1027.4 |
| 20260901160230 | 69 | 229 | 3.0 | 3.0 | 0.00 | 0.06 | 0.06 | 60 | 1027.3 |
| 20260901155728 | 68 | 231 | 0.0 | 0.0 | 0.00 | 0.06 | 0.06 | 60 | 1027.0 |
| 20260901155224 | 66 | 281 | 3.0 | 3.0 | 0.00 | 0.06 | 0.06 | 63 | 1027.4 |
| 20260901154719 | 67 | 240 | 3.0 | 3.0 | 0.00 | 0.06 | 0.06 | 62 | 1027.3 |
| 20260901154214 | 67 | 242 | 4.0 | 5.0 | 0.00 | 0.06 | 0.06 | 66 | 1027.5 |
| 20260901153710 | 66 | 243 | 3.0 | 3.0 | 0.00 | 0.06 | 0.06 | 66 | 1027.3 |
| 20260901153204 | 66 | 243 | 3.0 | 3.0 | 0.00 | 0.06 | 0.06 | 66 | 1027.3 |
| 20260901152658 | 66 | 248 | 3.0 | 3.0 | 0.00 | 0.06 | 0.06 | 66 | 1027.0 |
| 20260901152156 | 67 | 226 | 1.0 | 2.0 | 0.00 | 0.06 | 0.06 | 64 | 1027.1 |
| 20260901151652 | 68 | 235 | 2.0 | 2.0 | 0.00 | 0.06 | 0.06 | 67 | 1027.0 |
| 20260901151151 | 69 | 239 | 2.0 | 2.0 | 0.00 | 0.06 | 0.06 | 72 | 1027.3 |
| 20260901150645 | 68 | 241 | 2.0 | 2.0 | 0.00 | 0.06 | 0.06 | 69 | 1027.1 |
| 20260901150144 | 67 | 238 | 0.0 | 2.0 | 0.00 | 0.06 | 0.06 | 72 | 1027.0 |
| 20260901145642 | 66 | 232 | 1.0 | 2.0 | 0.00 | 0.06 | 0.06 | 73 | 1026.9 |
| 20260901145141 | 65 | 245 | 2.0 | 3.0 | 0.00 | 0.06 | 0.06 | 72 | 1027.0 |
| 20260901144637 | 64 | 244 | 1.0 | 2.0 | 0.00 | 0.06 | 0.06 | 79 | 1027.3 |
| 20260901144132 | 63 | 236 | 2.0 | 2.0 | 0.00 | 0.06 | 0.06 | 77 | 1027.0 |
| 20260901143627 | 63 | 227 | 5.0 | 5.0 | 0.00 | 0.06 | 0.06 | 77 | 1026.9 |
| 20260901143123 | 62 | 234 | 4.0 | 5.0 | 0.00 | 0.06 | 0.06 | 78 | 1026.9 |
| 20260901142619 | 61 | 242 | 1.0 | 2.0 | 0.00 | 0.06 | 0.06 | 82 | 1027.0 |
| 20260901142119 | 60 | 94 | 1.0 | 2.0 | 0.00 | 0.06 | 0.06 | 83 | 1027.0 |
| 20260901141613 | 60 | 242 | 0.0 | 0.0 | 0.00 | 0.06 | 0.06 | 84 | 1027.0 |
| 20260901141108 | 60 | 239 | 1.0 | 2.0 | 0.00 | 0.06 | 0.06 | 84 | 1026.8 |
| 20260901140607 | 59 | 252 | 2.0 | 2.0 | 0.00 | 0.06 | 0.06 | 81 | 1026.6 |
| 20260901140107 | 59 | 240 | 0.0 | 0.0 | 0.00 | 0.06 | 0.06 | 82 | 1026.8 |
| 20260901135606 | 58 | 242 | 0.0 | 0.0 | 0.00 | 0.06 | 0.06 | 85 | 1026.5 |
| 20260901135056 | 57 | 258 | 2.0 | 3.0 | 0.00 | 0.06 | 0.06 | 90 | 1026.9 |
| 20260901134552 | 57 | 245 | 3.0 | 3.0 | 0.00 | 0.06 | 0.06 | 92 | 1027.0 |
| 20260901134047 | 57 | 241 | 3.0 | 3.0 | 0.00 | 0.06 | 0.06 | 93 | 1026.6 |
| 20260901133546 | 57 | 250 | 2.0 | 2.0 | 0.00 | 0.06 | 0.06 | 91 | 1026.5 |
| 20260901133044 | 57 | 246 | 1.0 | 2.0 | 0.00 | 0.06 | 0.06 | 89 | 1026.9 |
| 20260901132539 | 57 | 249 | 2.0 | 2.0 | 0.00 | 0.06 | 0.06 | 87 | 1026.5 |
| 20260901132039 | 58 | 243 | 1.0 | 2.0 | 0.00 | 0.06 | 0.06 | 83 | 1026.5 |
| 20260901131538 | 57 | 243 | 0.0 | 0.0 | 0.00 | 0.06 | 0.06 | 84 | 1026.4 |
| 20260901131029 | 57 | 241 | 0.0 | 0.0 | 0.00 | 0.06 | 0.06 | 88 | 1026.4 |
| 20260901130528 | 58 | 241 | 0.0 | 0.0 | 0.00 | 0.06 | 0.06 | 86 | 1026.0 |
| 20260901130027 | 57 | 199 | 0.0 | 2.0 | 0.00 | 0.06 | 0.06 | 83 | 1026.1 |
| 20260901125526 | 58 | 236 | 1.0 | 2.0 | 0.00 | 0.06 | 0.06 | 86 | 1026.0 |
| 20260901125021 | 57 | 226 | 3.0 | 3.0 | 0.00 | 0.06 | 0.06 | 86 | 1026.1 |
| 20260901124516 | 56 | 238 | 0.0 | 0.0 | 0.00 | 0.06 | 0.06 | 91 | 1026.0 |
| 20260901124016 | 56 | 236 | 0.0 | 0.0 | 0.00 | 0.06 | 0.06 | 95 | 1026.0 |
| 20260901123511 | 56 | 241 | 0.0 | 0.0 | 0.00 | 0.06 | 0.06 | 95 | 1025.6 |
| 20260901123010 | 56 | 239 | 0.0 | 0.0 | 0.00 | 0.06 | 0.06 | 94 | 1025.8 |
| 20260901122509 | 56 | 203 | 1.0 | 2.0 | 0.00 | 0.06 | 0.06 | 93 | 1025.8 |
| 20260901122008 | 56 | 227 | 1.0 | 2.0 | 0.00 | 0.06 | 0.06 | 95 | 1025.8 |
| 20260901121503 | 56 | 215 | 0.0 | 2.0 | 0.00 | 0.06 | 0.06 | 96 | 1025.9 |
| 20260901120958 | 56 | 244 | 1.0 | 2.0 | 0.00 | 0.06 | 0.06 | 95 | 1025.6 |
| 20260901120458 | 56 | 262 | 3.0 | 3.0 | 0.00 | 0.06 | 0.06 | 95 | 1025.6 |
| 20260901115953 | 55 | 261 | 2.0 | 3.0 | 0.00 | 0.06 | 0.06 | 95 | 1025.4 |
| 20260901115448 | 56 | 246 | 2.0 | 3.0 | 0.00 | 0.06 | 0.06 | 95 | 1025.8 |
| 20260901114946 | 55 | 249 | 0.0 | 0.0 | 0.00 | 0.06 | 0.06 | 94 | 1025.5 |
| 20260901114441 | 55 | 248 | 0.0 | 0.0 | 0.00 | 0.06 | 0.06 | 95 | 1025.9 |
| 20260901113939 | 56 | 244 | 1.0 | 2.0 | 0.00 | 0.06 | 0.06 | 95 | 1026.0 |
| 20260901113438 | 56 | 230 | 0.0 | 0.0 | 0.00 | 0.06 | 0.06 | 95 | 1025.9 |
| 20260901112934 | 56 | 240 | 0.0 | 0.0 | 0.00 | 0.06 | 0.06 | 95 | 1026.0 |
| 20260901112429 | 56 | 245 | 2.0 | 2.0 | 0.05 | 0.06 | 0.06 | 95 | 1026.0 |
| 20260901111924 | 55 | 244 | 0.0 | 0.0 | 0.05 | 0.06 | 0.06 | 95 | 1025.8 |
| 20260901111422 | 55 | 246 | 1.0 | 2.0 | 0.00 | 0.05 | 0.05 | 95 | 1025.8 |
| 20260901110921 | 55 | 244 | 2.0 | 2.0 | 0.00 | 0.05 | 0.05 | 95 | 1025.6 |
| 20260901110417 | 55 | 244 | 1.0 | 2.0 | 0.00 | 0.05 | 0.05 | 96 | 1025.9 |
| 20260901105913 | 55 | 239 | 3.0 | 3.0 | 0.00 | 0.05 | 0.05 | 96 | 1025.6 |
| 20260901105408 | 55 | 255 | 2.0 | 2.0 | 0.00 | 0.05 | 0.05 | 96 | 1025.8 |
| 20260901104904 | 55 | 236 | 2.0 | 3.0 | 0.00 | 0.05 | 0.05 | 95 | 1026.0 |
| 20260901104359 | 55 | 246 | 3.0 | 3.0 | 0.00 | 0.05 | 0.05 | 95 | 1026.1 |
| 20260901103854 | 55 | 253 | 2.0 | 2.0 | 0.00 | 0.05 | 0.05 | 96 | 1025.6 |
| 20260901103348 | 55 | 274 | 2.0 | 3.0 | 0.00 | 0.05 | 0.05 | 96 | 1025.6 |
| 20260901102843 | 55 | 262 | 2.0 | 2.0 | 0.00 | 0.05 | 0.05 | 95 | 1025.8 |
| 20260901102338 | 56 | 266 | 5.0 | 5.0 | 0.00 | 0.05 | 0.05 | 93 | 1025.8 |
| 20260901101834 | 56 | 265 | 3.0 | 3.0 | 0.07 | 0.05 | 0.05 | 91 | 1025.8 |
| 20260901101333 | 57 | 238 | 3.0 | 3.0 | 0.19 | 0.05 | 0.05 | 89 | 1026.0 |
| 20260901100833 | 57 | 231 | 6.0 | 10.0 | 0.17 | 0.04 | 0.04 | 88 | 1026.3 |
| 20260901100328 | 58 | 208 | 6.0 | 9.0 | 0.05 | 0.02 | 0.02 | 85 | 1026.3 |
| 20260901095827 | 59 | 219 | 11.0 | 15.0 | 0.00 | 0.01 | 0.01 | 80 | 1026.1 |
| 20260901095324 | 59 | 237 | 10.0 | 12.0 | 0.00 | 0.01 | 0.01 | 82 | 1026.0 |
| 20260901094818 | 58 | 231 | 7.0 | 9.0 | 0.07 | 0.01 | 0.01 | 85 | 1026.3 |
| 20260901094313 | 59 | 256 | 6.0 | 7.0 | 0.07 | 0.01 | 0.01 | 85 | 1026.4 |
| 20260901093808 | 61 | 231 | 8.0 | 9.0 | 0.00 | 0.00 | 0.00 | 78 | 1026.0 |
| 20260901093307 | 61 | 212 | 9.0 | 12.0 | 0.00 | 0.00 | 0.00 | 72 | 1026.0 |
| 20260901092803 | 60 | 227 | 8.0 | 10.0 | 0.00 | 0.00 | 0.00 | 73 | 1026.0 |
| 20260901092259 | 60 | 224 | 7.0 | 12.0 | 0.00 | 0.00 | 0.00 | 77 | 1026.1 |
| 20260901091755 | 59 | 222 | 5.0 | 5.0 | 0.00 | 0.00 | 0.00 | 80 | 1026.4 |
| 20260901091249 | 59 | 193 | 3.0 | 3.0 | 0.00 | 0.00 | 0.00 | 81 | 1026.1 |
| 20260901090744 | 59 | 204 | 3.0 | 3.0 | 0.00 | 0.00 | 0.00 | 83 | 1026.4 |
| 20260901090239 | 59 | 247 | 3.0 | 3.0 | 0.00 | 0.00 | 0.00 | 82 | 1026.4 |
| 20260901085735 | 60 | 216 | 2.0 | 2.0 | 0.00 | 0.00 | 0.00 | 79 | 1026.4 |
| 20260901085230 | 60 | 215 | 3.0 | 5.0 | 0.00 | 0.00 | 0.00 | 78 | 1026.5 |
| 20260901084727 | 60 | 239 | 4.0 | 5.0 | 0.00 | 0.00 | 0.00 | 78 | 1026.6 |
| 20260901084223 | 60 | 234 | 4.0 | 5.0 | 0.00 | 0.00 | 0.00 | 79 | 1026.5 |
| 20260901083717 | 60 | 221 | 4.0 | 5.0 | 0.00 | 0.00 | 0.00 | 80 | 1027.0 |
| 20260901083216 | 58 | 211 | 5.0 | 7.0 | 0.00 | 0.00 | 0.00 | 83 | 1026.9 |
| 20260901082715 | 57 | 249 | 5.0 | 7.0 | 0.00 | 0.00 | 0.00 | 93 | 1027.1 |
| 20260901082211 | 57 | 239 | 3.0 | 3.0 | 0.00 | 0.00 | 0.00 | 94 | 1026.6 |
| 20260901081707 | 57 | 248 | 2.0 | 2.0 | 0.00 | 0.00 | 0.00 | 95 | 1026.6 |
| 20260901081206 | 57 | 279 | 3.0 | 3.0 | 0.00 | 0.00 | 0.00 | 95 | 1026.9 |
| 20260901080701 | 57 | 253 | 2.0 | 2.0 | 0.00 | 0.00 | 0.00 | 95 | 1027.0 |
| 20260901080159 | 57 | 249 | 2.0 | 3.0 | 0.00 | 0.00 | 0.00 | 95 | 1027.0 |
| 20260901075654 | 57 | 262 | 3.0 | 3.0 | 0.00 | 0.00 | 0.00 | 94 | 1027.1 |
| 20260901075149 | 57 | 273 | 7.0 | 9.0 | 0.00 | 0.00 | 0.00 | 92 | 1026.9 |
| 20260901074648 | 57 | 238 | 2.0 | 3.0 | 0.00 | 0.00 | 0.00 | 93 | 1027.1 |
| 20260901074143 | 58 | 247 | 3.0 | 3.0 | 0.00 | 0.00 | 0.00 | 93 | 1027.0 |
| 20260901073640 | 58 | 254 | 2.0 | 2.0 | 0.00 | 0.00 | 0.00 | 91 | 1027.3 |
| 20260901073136 | 58 | 267 | 8.0 | 12.0 | 0.00 | 0.00 | 0.00 | 90 | 1027.3 |
| 20260901072631 | 57 | 232 | 9.0 | 12.0 | 0.00 | 0.00 | 0.00 | 93 | 1027.3 |
| 20260901072126 | 57 | 247 | 3.0 | 3.0 | 0.00 | 0.00 | 0.00 | 94 | 1027.3 |
| 20260901071625 | 58 | 232 | 9.0 | 14.0 | 0.00 | 0.00 | 0.00 | 94 | 1027.0 |
| 20260901071124 | 58 | 238 | 0.0 | 0.0 | 0.00 | 0.00 | 0.00 | 92 | 1026.3 |
| 20260901070619 | 58 | 222 | 0.0 | 0.0 | 0.00 | 0.00 | 0.00 | 92 | 1026.5 |
| 20260901070114 | 58 | 241 | 2.0 | 2.0 | 0.00 | 0.00 | 0.00 | 91 | 1026.3 |
| 20260901065608 | 58 | 191 | 4.0 | 7.0 | 0.00 | 0.00 | 0.00 | 91 | 1026.5 |
| 20260901065103 | 58 | 70 | 4.0 | 5.0 | 0.00 | 0.00 | 0.00 | 92 | 1026.3 |
| 20260901064600 | 58 | 90 | 6.0 | 7.0 | 0.00 | 0.00 | 0.00 | 93 | 1026.5 |
| 20260901064056 | 58 | 207 | 3.0 | 3.0 | 0.00 | 0.00 | 0.00 | 93 | 1026.4 |
| 20260901063553 | 58 | 128 | 5.0 | 5.0 | 0.00 | 0.00 | 0.00 | 94 | 1026.5 |
| 20260901063049 | 58 | 209 | 3.0 | 5.0 | 0.00 | 0.00 | 0.00 | 93 | 1026.4 |
| 20260901062544 | 58 | 237 | 3.0 | 5.0 | 0.00 | 0.00 | 0.00 | 93 | 1026.3 |
| 20260901062040 | 58 | 64 | 4.0 | 7.0 | 0.00 | 0.00 | 0.00 | 92 | 1026.4 |
| 20260901061536 | 58 | 82 | 7.0 | 9.0 | 0.00 | 0.00 | 0.00 | 92 | 1026.1 |
| 20260901061031 | 58 | 119 | 9.0 | 12.0 | 0.00 | 0.00 | 0.00 | 92 | 1026.3 |
| 20260901060525 | 58 | 184 | 6.0 | 7.0 | 0.00 | 0.00 | 0.00 | 93 | 1026.4 |
| 20260901060020 | 58 | 175 | 7.0 | 10.0 | 0.00 | 0.00 | 0.00 | 93 | 1026.5 |
| 20260901055515 | 58 | 117 | 7.0 | 9.0 | 0.00 | 0.21 | 0.21 | 92 | 1026.8 |